Home   Weather   Georgsmarienhütte   Past weeks

Flag for Germany Past Weather in Georgsmarienhütte, Lower Saxony, Germany — Yesterday and Last 2 Weeks

Now
61 °F

Partly sunny.


Feels Like: 61 °F
Forecast: 51 / 62 °F
Wind: 12 mph from Southwest

Location: Muenster / Osnabrueck

Current Time: Sep 30, 2016 at 12:07:45 PM

Latest Report: Sep 30, 2016 at 11:20 AM


Visibility: N/A

Pressure: 29.92 "Hg

Humidity: 77%

Dew Point: 54 °F

Location of GeorgsmarienhütteLocation

Past Weather in Georgsmarienhütte — Graph

°F

Georgsmarienhütte Temperature Yesterday

Maximum temperature yesterday: 70 °F (at 12:20 PM)
Minimum temperature yesterday: 59 °F (at 10:20 PM)
Average temperature yesterday: 66 °F

High & Low Weather Summary for the Past Weeks

 TemperatureHumidityPressure
High84 °F (Sep 15, 1:50 PM)100% (Sep 16, 7:50 AM)30.30 "Hg (Sep 16, 7:50 AM)
Low43 °F (Sep 21, 5:20 AM)30% (Sep 25, 3:20 PM)29.83 "Hg (Sep 15, 3:20 PM)
Average61 °F71%30.09 "Hg
* Reported Sep 15 10:20 AM — Sep 30 10:50 AM, Georgsmarienhütte, Weather by CustomWeather, © 2016

Note: Actual official high and low records may vary slightly from our data, if they occured in-between our weather recording intervals... More about our weather records

Advertising

Georgsmarienhütte Weather History for the Previous 24 Hours

Scroll right to see more
 ConditionsComfort  
Time TempWeatherWind HumidityBarometerVisibility
10:50 AM
Fri, Sep 30
59 °FPartly sunny.9 mph82%29.92 "HgN/A
10:20 AM59 °FPartly sunny.10 mph82%29.92 "HgN/A
9:50 AM59 °FPartly sunny.9 mph82%29.92 "HgN/A
9:20 AM57 °FPartly sunny.6 mph88%29.92 "HgN/A
8:50 AM57 °FBroken clouds.6 mph88%29.89 "Hg4 mi
8:20 AM55 °FClear.5 mph94%29.89 "Hg4 mi
7:50 AM55 °FClear.5 mph94%29.89 "Hg4 mi
7:20 AM55 °FPartly cloudy.6 mph94%29.89 "Hg6 mi
6:50 AM57 °FPartly cloudy.6 mph88%29.89 "Hg6 mi
6:20 AM57 °FPartly cloudy.6 mph88%29.89 "HgN/A
5:50 AM57 °FPassing clouds.6 mph88%29.89 "HgN/A
5:20 AM57 °FPartly cloudy.6 mph88%29.89 "HgN/A
4:50 AM57 °FPartly cloudy.6 mph88%29.89 "HgN/A
4:20 AM57 °FPassing clouds.6 mph88%29.89 "HgN/A
3:50 AM57 °FPartly cloudy.5 mph94%29.89 "HgN/A
3:20 AM57 °FPassing clouds.6 mph94%29.89 "HgN/A
2:50 AM57 °FPartly cloudy.8 mph94%29.89 "HgN/A
2:20 AM59 °FPartly cloudy.8 mph88%29.89 "HgN/A
1:50 AM59 °FPassing clouds.8 mph88%29.89 "HgN/A
1:20 AM59 °FLight rain. Passing clouds.8 mph88%29.92 "HgN/A
12:50 AM59 °FLight rain. Passing clouds.9 mph88%29.89 "HgN/A
12:20 AM59 °FLight rain. Passing clouds.9 mph88%29.92 "HgN/A
11:50 PM
Thu, Sep 29
59 °FLight rain. Passing clouds.12 mph88%29.89 "HgN/A
11:20 PM59 °FPassing clouds.12 mph88%29.89 "HgN/A
10:50 PM59 °FPassing clouds.12 mph88%29.92 "HgN/A
10:20 PM59 °FPartly cloudy.15 mph88%29.92 "HgN/A
9:50 PM61 °FLight rain. Partly cloudy.16 mph88%29.89 "Hg5 mi
9:20 PM61 °FRain. Partly cloudy.14 mph94%29.89 "Hg2 mi
8:50 PM64 °FLight rain. Passing clouds.24 mph78%29.89 "HgN/A
8:20 PM66 °FLight rain. Passing clouds.18 mph68%29.86 "HgN/A
7:50 PM66 °FPartly cloudy.16 mph64%29.89 "HgN/A
7:20 PM66 °FPartly cloudy.18 mph64%29.89 "HgN/A
6:50 PM68 °FPartly sunny.18 mph60%29.89 "HgN/A
6:20 PM68 °FPartly sunny.16 mph60%29.89 "HgN/A
5:50 PM68 °FPartly sunny.21 mph60%29.89 "HgN/A
5:20 PM68 °FPartly sunny.13 mph60%29.89 "HgN/A
4:50 PM68 °FPartly sunny.17 mph60%29.89 "HgN/A
4:20 PM68 °FPartly sunny.16 mph60%29.89 "HgN/A
3:50 PM70 °FPartly sunny.20 mph57%29.89 "HgN/A
3:20 PM70 °FPartly sunny.17 mph57%29.92 "HgN/A
2:50 PM68 °FPartly sunny.17 mph60%29.92 "HgN/A
2:20 PM68 °FPartly sunny.17 mph60%29.92 "HgN/A
1:50 PM70 °FPartly sunny.21 mph57%29.92 "HgN/A
1:20 PM70 °FBroken clouds.20 mph57%29.95 "HgN/A
12:50 PM70 °FPartly sunny.23 mph53%29.95 "HgN/A
12:20 PM70 °FBroken clouds.21 mph60%29.95 "HgN/A
Weather by CustomWeather, © 2016

See weather overviewHow to use our weather pages